Starlink 11567

operational
NORAD ID: 62909 Int'l Des: 2025-027 Owner: SPXS Country: US Constellation: starlink
LEOCIRCULAR

Über Starlink 11567

Beschreibung wird geladen...

Live-Position

3D-Globus wird geladen...

Nächste Überflüge

Höhenverlauf

Altitude vs Time

uPlot chart will show altitude changes over time

Zweizeiliger Elementsatz

1 62909U 25027C 25349.41192671 .00185557 00000-0 14106-2 0 9991
2 62909 42.9965 136.0023 0000521 169.9051 190.1827 15.70956253 49898
Epoch: 15. Dez. 2025 • Age: 36 hours

Aktueller Status

Höhe 361.6 km
Geschwindigkeit 7.69 km/s
Subsatellitenpunkt -27.89°S, 73.28°W
Startdatum 8. Feb. 2025
Alter 0.8 years
Typ internet

Technische Details

Klassifizierung Payload
Masse 960.00 kg
Trockenmasse 910.00 kg
Gesamtmasse 960.00 kg
Länge 0.30 m
Durchmesser 4.10 m
Spannweite 29.00 m
Form Box + pan
Hersteller SPXS
Bus-Typ Starlink V2MD
Phasenstatus In Orbit
Besitzer/Staat SPXS/US

Große Konstellationen

Loading constellations...